Regional Weather Roundup
Issued by NWS

Home | Current Version | Previous Version | Graphics & Text | Print | Product List | Glossary On
Versions: 1 2 3 4 5 6 7 8 9 10 11 12 13 14 15 16 17 18 19 20 21 22 23 24 25 26 27 28 29 30 31 32 33 34 35 36 37 38 39 40 41 42 43 44 45 46 47 48 49 50
000
ASUS43 KLSX 240710
RWRMO

WEATHER SUMMARY FOR MISSOURI
NATIONAL WEATHER SERVICE SPRINGFIELD MO
100 AM CST TUE JAN 24 2017

NOTE: "FAIR" INDICATES FEW OR NO CLOUDS BELOW 12,000 FEET WITH NO
       SIGNIFICANT WEATHER AND/OR OBSTRUCTIONS TO VISIBILITY.
       CURRENT SKY AND/OR WEATHER CONDITIONS ARE NOT AVAILABLE FOR
       CHILLICOTHE AND FARMINGTON.

MOZ001>031-035>038-043-044-053-054-240800-
...NORTHERN AND WESTERN MISSOURI...

CITY           SKY/WX    TMP DP  RH WIND       PRES   REMARKS
KANSAS CTY INT CLOUDY    31  28  89 SE9       29.80F WCI  23
KANSAS C DTWN  CLEAR     31  29  92 E5        29.81F WCI  26
LEE`S SUMMIT   CLEAR     31  30  96 E8        29.81F FOG     WCI  23
ST JOSEPH      CLOUDY    30  29  96 E5        29.82F WCI  25
CHILLICOTHE      N/A     28  26  92 CALM      29.86F
KIRKSVILLE     CLOUDY    31  29  92 NE7       29.85F WCI  24

$$
MOZ066>068-077>081-088>096-101>105-240800-
...SOUTHWEST MISSOURI...

CITY           SKY/WX    TMP DP  RH WIND       PRES   REMARKS
SPRINGFIELD    CLEAR     33  29  85 SE8       29.80F WCI  26
JOPLIN         CLEAR     41  33  73 SE9       29.77F
BRANSON        CLEAR     39  32  75 SE9       29.82F

$$
MOZ032>034-039>042-045>050-055>058-069>072-240800-
...CENTRAL MISSOURI...

CITY           SKY/WX    TMP DP  RH WIND       PRES   REMARKS
COLUMBIA       CLOUDY    34  31  88 CALM      29.86S
JEFFERSON CITY MOCLDY    29  28  96 CALM      29.88R
ROLLA          FOG       29  28  96 CALM      29.83S VSB 1/2
SEDALIA        CLEAR     30  28  92 SE6       29.85F FOG     WCI  24
WHITEMAN AFB   CLEAR     28  28 100 E5        29.82F WCI  23
WARRENSBURG    CLEAR     28  28 100 E5        29.83S FOG     WCI  23
OSAGE BEACH    CLEAR     28  27  96 CALM      29.86F FOG

$$
MOZ051-052-059>065-240800-
...EAST CENTRAL MISSOURI...

CITY           SKY/WX    TMP DP  RH WIND       PRES   REMARKS
ST LOUIS INTL  CLOUDY    40  31  70 W6        29.87F
SPIRIT OF STL  CLOUDY    40  33  76 N3        29.86F
ST CHARLES     CLOUDY    39  32  76 N3        29.87F

$$
MOZ072>076-082>087-097>100-106>115-240800-
...SOUTH CENTRAL AND SOUTHEAST MISSOURI...

CITY           SKY/WX    TMP DP  RH WIND       PRES   REMARKS
CAPE GIRARDEAU CLEAR     32  30  92 CALM      29.88F
FARMINGTON     FOG       27  27 100 CALM      29.87S VSB 1
POPLAR BLUFF   PTCLDY    32  31  96 CALM      29.88S
WEST PLAINS    CLOUDY    30  27  88 CALM      29.86S

$$



USA.gov is the U.S. government's official web portal to all federal, state and local government web resources and services.